STARLINK-34541 (64771 NORAD) Tracking and Keplerian Element Data

This shows tracking and keplerian element data for the satellite.

Feedback or suggestion? Click here.




ElementValue
Catalog64771
NameSTARLINK-34541
Epoch Orbit2648
Epoch Day353.99185738
Epoch Year2025
RAAN252.6579
Inclination53.1599
Eccentricity0.0001917
Argument of Perigee94.1499
Mean Anonmoly265.972
Mean Motion15.30208506
Decay Rate0.00018376
L11 64771U 25147S 25353.99185738 .00018376 00000+0 63085-3 0 9991
L22 64771 53.1599 252.6579 0001917 94.1499 265.9720 15.30208506 26480



Live tracking and technical data element details for STARLINK-34541 (NORAD 64771). STARLINK-34541 can be tracked NOW for your location showing map with azimuth and elevation plus other details from your city location.







IsCatalogInMostPopularTable: catalog: 64771, numindb: 8
Update: records affected: 1



GetName: 64771 STARLINK-34541

Hit Count: updated at: Mon, 20 Apr 2026 10:23:46 GMT